New York JFK, NY

8:48 AM EDT on October 22, 2017 (GMT -0400)
Kennedy International

Weather History for KJFK - July, 2013

Change the Weather History Date:

Sunday, July 7, 2013

  Actual Average Record
Temperature  
Mean Temperature 83 °F 75 °F  
Max Temperature 88 °F 83 °F 100 °F (2010)
Min Temperature 78 °F 68 °F 56 °F (1965)
Degree Days  
Heating Degree Days 0 0  
Month to date heating degree days 0 0  
Since 1 June heating degree days 10 21  
Since 1 July heating degree days 0 0  
Cooling Degree Days 18 10  
Month to date cooling degree days 96 70  
Year to date cooling degree days 302 288  
Since 1 June cooling degree days 276 253  
Growing Degree Days 32 (Base 50)    
Moisture  
Dew Point 72 °F    
Average Humidity 72    
Maximum Humidity 85    
Minimum Humidity 58    
Precipitation  
Precipitation 0.00 in 0.12 in 1.92 in (2017)
Month to date precipitation 1.32 0.81  
Year to date precipitation 22.52 22.01  
Snow  
Snow 0.00 in 0.00 in - ()
Month to date snowfall 0.0 0.0  
Since 1 July snowfall 0.0 0.0  
Snow Depth 0.00 in    
Sea Level Pressure  
Sea Level Pressure 30.02 in    
Wind  
Wind Speed 10 mph (SW)    
Max Wind Speed 21 mph    
Max Gust Speed 32 mph    
Visibility 10 miles    
Events      
T = Trace of Precipitation, MM = Missing Value Source: NWS Daily Summary

Daily Weather History Graph

Daily Weather History Graph

Search for Another Location

Airport or City:

Trip Planner

Search our weather history database for the weather conditions in past years. The results will help you decide how hot, cold, wet, or windy it might be!

Date:

Astronomy

Jul. 07, 2013 Rise Set
Actual Time 5:31 AM EDT 8:28 PM EDT
Civil Twilight 4:58 AM EDT 9:01 PM EDT
Nautical Twilight 4:16 AM EDT 9:42 PM EDT
Astronomical Twilight 3:28 AM EDT 10:31 PM EDT
Moon 5:05 AM EDT (7/7) 7:50 PM EDT (7/7)
Length of Visible Light 16h 02m
Length of Day
14h 57m
Waning Crescent, 0% of the Moon is Illuminated
Jul 7
Waning Crescent
Jul 8
New
Jul 15
First Quarter
Jul 22
Full
Jul 29
Last Quarter

Hourly Weather History & Observations

Time (EDT) Temp. Heat Index Dew Point Humidity Pressure Visibility Wind Dir Wind Speed Gust Speed Precip Events Conditions
12:51 AM 82.0 °F 87.4 °F 73.0 °F 74% 30.07 in 10.0 mi WSW 13.8 mph - N/A   Partly Cloudy
1:51 AM 81.0 °F 85.8 °F 73.0 °F 77% 30.07 in 10.0 mi WSW 8.1 mph - N/A   Partly Cloudy
2:51 AM 82.0 °F 87.4 °F 73.0 °F 74% 30.06 in 10.0 mi West 10.4 mph - N/A   Partly Cloudy
3:51 AM 80.1 °F 84.2 °F 73.0 °F 79% 30.05 in 10.0 mi WSW 9.2 mph - N/A   Partly Cloudy
4:51 AM 78.1 °F - 72.0 °F 81% 30.06 in 10.0 mi SW 9.2 mph - N/A   Scattered Clouds
5:51 AM 78.1 °F - 73.0 °F 84% 30.06 in 10.0 mi WSW 9.2 mph - N/A   Mostly Cloudy
6:51 AM 79.0 °F - 73.0 °F 82% 30.06 in 10.0 mi SW 8.1 mph - N/A   Mostly Cloudy
7:51 AM 80.1 °F 83.8 °F 72.0 °F 76% 30.07 in 10.0 mi SSW 6.9 mph - N/A   Mostly Cloudy
8:51 AM 81.0 °F 85.2 °F 72.0 °F 74% 30.07 in 10.0 mi WSW 10.4 mph - N/A   Mostly Cloudy
9:51 AM 84.0 °F 90.2 °F 73.0 °F 69% 30.05 in 10.0 mi SW 10.4 mph - N/A   Mostly Cloudy
10:51 AM 86.0 °F 93.0 °F 73.0 °F 65% 30.04 in 10.0 mi SSW 9.2 mph - N/A   Mostly Cloudy
11:51 AM 84.0 °F 89.6 °F 72.0 °F 67% 30.04 in 10.0 mi SSW 9.2 mph - N/A   Mostly Cloudy
12:51 PM 84.9 °F 90.7 °F 72.0 °F 65% 30.03 in 10.0 mi SSW 9.2 mph - N/A   Mostly Cloudy
1:51 PM 84.9 °F 90.7 °F 72.0 °F 65% 30.02 in 10.0 mi South 12.7 mph - N/A   Mostly Cloudy
2:51 PM 86.0 °F 93.0 °F 73.0 °F 65% 29.99 in 10.0 mi SSW 15.0 mph - N/A   Mostly Cloudy
3:51 PM 86.0 °F 93.0 °F 73.0 °F 65% 29.98 in 10.0 mi South 13.8 mph - N/A   Mostly Cloudy
4:51 PM 86.0 °F 93.0 °F 73.0 °F 65% 29.96 in 10.0 mi South 11.5 mph - N/A   Mostly Cloudy
5:51 PM 84.9 °F 91.4 °F 73.0 °F 67% 29.95 in 10.0 mi South 9.2 mph - N/A   Mostly Cloudy
6:51 PM 84.0 °F 89.6 °F 72.0 °F 67% 29.96 in 10.0 mi South 9.2 mph - N/A   Mostly Cloudy
7:51 PM 84.9 °F 90.7 °F 72.0 °F 65% 29.95 in 10.0 mi SSW 11.5 mph - N/A   Mostly Cloudy
8:51 PM 84.9 °F 90.7 °F 72.0 °F 65% 29.98 in 10.0 mi WSW 12.7 mph - N/A   Mostly Cloudy
9:51 PM 84.0 °F 90.2 °F 73.0 °F 69% 29.96 in 10.0 mi SSW 10.4 mph - N/A   Mostly Cloudy
10:51 PM 82.0 °F 84.9 °F 68.0 °F 62% 29.96 in 10.0 mi SW 8.1 mph - N/A   Scattered Clouds
11:51 PM 82.0 °F 84.1 °F 66.0 °F 58% 30.00 in 10.0 mi West 16.1 mph - N/A   Mostly Cloudy